Regional Weather Roundup
Issued by NWS

Home | Current Version | Previous Version | Graphics & Text | Print | Product List | Glossary On
Versions: 1 2 3 4 5 6 7 8 9 10 11 12 13 14 15 16 17 18 19 20 21 22 23 24 25 26 27 28 29 30 31 32 33 34 35 36 37 38 39 40 41 42 43 44 45 46 47 48 49 50
000
ASUS43 KIND 180259
RWRIN

WEATHER ROUNDUP FOR INDIANA
NATIONAL WEATHER SERVICE INDIANAPOLIS IN
1100 PM EDT WED SEP 17 2014

NOTE: "FAIR" INDICATES FEW OR NO CLOUDS BELOW 12,000 FEET WITH NO
SIGNIFICANT WEATHER AND/OR OBSTRUCTIONS TO VISIBILITY.

* - STATION DOES NOT REPORT WEATHER SUCH AS PRECIPITATION OR FOG.

+ - STATION NOT QUALITY CONTROLLED BY THE NATIONAL WEATHER SERVICE.
    USE DATA WITH CAUTION...ESPECIALLY DEWPOINT AND RELATIVE
    HUMIDITY OBSERVATIONS.

INZ001>003-010>013-019-020-180400-
NORTHWEST INDIANA

CITY           SKY/WX    TMP DP  RH WIND       PRES   REMARKS
GARY /AIRPORT/ CLEAR     52  50  93 SE5       30.03R
VALPARAISO     CLEAR     53  47  79 CALM      30.03R

$$

LMZ046-743>745-180400-
SOUTHERN LAKE MICHIGAN

STATION/POSITION TIME  TEMP WIND        PRES
                       AIR  DIR/SP/G
                 (UTC) (F)  (DEG/KT/KT) (MB)
MICHIGAN CITY    0200   60   80/  4/  6   N/A

$$

INZ004-005-014>016-021>024-180400-
NORTH CENTRAL INDIANA

CITY           SKY/WX    TMP DP  RH WIND       PRES   REMARKS
GOSHEN         CLEAR     51  46  83 CALM      30.02R
PERU/GRISSOM   CLEAR     55  55  98 NE6       30.02R
SOUTH BEND     CLEAR     49  44  83 CALM      30.04R

$$

INZ006>009-017-018-025>027-180400-
NORTHEAST INDIANA

CITY           SKY/WX    TMP DP  RH WIND       PRES   REMARKS
ANGOLA *+      CLEAR     48  46  93 CALM      30.02S
FORT WAYNE     PTCLDY    54  49  83 N5        30.02R

$$

INZ028-029-035-036-043>045-051>053-180400-
WEST CENTRAL INDIANA

CITY           SKY/WX    TMP DP  RH WIND       PRES   REMARKS
GREENCASTLE +  CLEAR     54  52  94 CALM      30.03S
LAFAYETTE      CLEAR     53  52  96 W3        30.01R
TERRE HAUTE    MOCLDY    52  50  93 CALM      30.02S FOG

$$

INZ030>032-037>040-046>048-054>057-064-065-180400-
CENTRAL INDIANA

CITY           SKY/WX    TMP DP  RH WIND       PRES   REMARKS
INDIANAPOLIS   PTCLDY    55  50  83 SW7       30.02R
-EAGLE CREEK   CLEAR     57  51  80 SW3       30.02R
KOKOMO *+      CLEAR     50  46  87 CALM      30.02R
MT COMFORT *+  CLEAR     52  52 100 CALM      30.03R
SHELBYVILLE    CLEAR     54  49  83 CALM      30.02R

$$

INZ033-034-041-042-049-050-058-059-180400-
EAST CENTRAL INDIANA

CITY           SKY/WX    TMP DP  RH WIND       PRES   REMARKS
MUNCIE         CLEAR     52  49  89 CALM      30.01R

$$

INZ060-061-067>069-081>083-085>088-180400-
SOUTHWEST INDIANA

CITY           SKY/WX    TMP DP  RH WIND       PRES   REMARKS
EVANSVILLE     CLOUDY    64  55  72 CALM      29.99R

$$

INZ062-063-066-070>080-084-089>092-180400-
SOUTH CENTRAL AND SOUTHEAST INDIANA

CITY           SKY/WX    TMP DP  RH WIND       PRES   REMARKS
BLOOMINGTON    CLEAR     51  50  96 CALM      30.02R FOG

$$



USA.gov is the U.S. government's official web portal to all federal, state and local government web resources and services.